Flag for Jersey Weather past 2 weeks in Saint Helier, Jersey

Now
68 °F

Scattered clouds.


Feels Like: 68 °F
Forecast: 59 / 68 °F
Wind: 14 mph from West

Location: Jersey Airport

Current Time: Jul 4, 2015 at 12:01:05 PM

Latest Report: Jul 4, 2015 at 11:20 AM


Visibility: N/A

Pressure: 30.15 "Hg

Humidity: 73%

Dew point: 59 °F

Location of Saint HelierLocation

Historic Weather in Saint Helier — Graph

°F

Saint Helier temperature yesterday

Maximum temperature yesterday: 75 °F (at 1:50 PM)
Minimum temperature yesterday: 57 °F (at 3:50 AM)
Average temperature yesterday: 68 °F

Past Weeks' High & Low Weather Summary

 TemperatureHumidityPressure
High86 °F (Jun 30, 2:50 PM)100% (Jun 20, 4:20 AM)30.27 "Hg (Jun 20, 4:20 AM)
Low50 °F (Jun 23, 3:50 AM)38% (Jun 25, 9:20 AM)29.80 "Hg (Jul 1, 4:50 AM)
Average64 °F78%30.11 "Hg
* Reported Jun 19 10:20 AM — Jul 4 10:50 AM, Saint Helier, Weather by CustomWeather, © 2015

Note: Actual official high and low records may vary slightly from our data, if they occured in-between our weather recording intervals... More about our weather records

Advertising

Saint Helier weather history for previous 24 hours

 ConditionsComfort  
Time TempWeatherWind HumidityBarometerVisibility
10:50 AM
Sat, Jul 4
68 °FScattered clouds.13 mph73%30.15 "HgN/A
10:20 AM68 °FScattered clouds.12 mph73%30.15 "HgN/A
9:50 AM70 °FScattered clouds.13 mph69%30.15 "HgN/A
9:20 AM68 °FPassing clouds.12 mph73%30.12 "HgN/A
8:50 AM68 °FPartly sunny.13 mph78%30.12 "HgN/A
8:20 AM68 °FPassing clouds.15 mph78%30.09 "HgN/A
7:50 AM66 °FPassing clouds.15 mph78%30.09 "HgN/A
7:20 AM64 °FPassing clouds.14 mph83%30.09 "HgN/A
6:50 AM66 °FPassing clouds.13 mph78%30.07 "HgN/A
6:20 AM63 °FPassing clouds.7 mph88%30.07 "HgN/A
5:50 AM63 °FPassing clouds.8 mph88%30.07 "HgN/A
5:20 AM63 °FPassing clouds.12 mph94%30.04 "HgN/A
4:50 AM64 °FPassing clouds.10 mph94%30.04 "HgN/A
4:20 AM64 °FPassing clouds.12 mph94%30.04 "HgN/A
3:50 AM63 °FPassing clouds.8 mph100%30.01 "HgN/A
11:20 PM
Fri, Jul 3
66 °FClear.8 mph88%29.98 "Hg10 mi
10:50 PM68 °FClear.8 mph83%29.98 "Hg10 mi
10:20 PM68 °FClear.9 mph83%29.98 "Hg10 mi
9:50 PM68 °FSunny.10 mph83%29.98 "Hg10 mi
9:20 PM68 °FSunny.14 mph83%29.98 "Hg10 mi
8:50 PM70 °FSunny.13 mph78%29.98 "Hg10 mi
8:20 PM70 °FSunny.15 mph78%29.98 "Hg10 mi
7:50 PM70 °FPassing clouds.16 mph78%29.98 "HgN/A
7:20 PM70 °FPassing clouds.18 mph78%29.98 "HgN/A
6:50 PM72 °FSunny.16 mph78%30.01 "Hg10 mi
6:20 PM72 °FSunny.15 mph78%30.01 "Hg10 mi
5:50 PM72 °FSunny.17 mph78%30.01 "Hg10 mi
5:20 PM73 °FSunny.24 mph69%30.01 "Hg10 mi
4:50 PM73 °FSunny.15 mph69%30.01 "Hg10 mi
4:20 PM73 °FSunny.17 mph69%30.04 "Hg10 mi
3:50 PM75 °FSunny.14 mph65%30.04 "Hg10 mi
3:20 PM73 °FSunny.17 mph65%30.07 "Hg10 mi
2:50 PM73 °FSunny.22 mph65%30.07 "Hg10 mi
2:20 PM75 °FSunny.21 mph57%30.09 "Hg10 mi
1:50 PM75 °FSunny.18 mph54%30.09 "Hg10 mi
1:20 PM73 °FSunny.20 mph57%30.09 "Hg10 mi
12:50 PM73 °FSunny.25 mph57%30.12 "Hg10 mi
12:20 PM73 °FSunny.18 mph61%30.12 "Hg10 mi
Weather by CustomWeather, © 2015

See weather overviewHow to use our weather pages